#timestamp,LO_Frequency,Hit,StdDev 
1512003615.5,286047026.2,Y
1512003635.3,286047014.4,P
1512003655.2,286047016.9,P
1512003675.0,286047018.3,P
1512003675.9,286047018.3,Y
1512003695.8,286047002.5,P
1512003715.6,286047002.6,N
1512003735.4,286046996.6,N
1512003755.2,286047001.0,N
1512003775.1,286047003.0,N
1512003776.0,286047003.0,N
1512003795.8,286047005.1,N
1512003815.6,286047004.7,N
1512003835.5,286047006.6,N
1512003855.3,286047017.2,Y
1512003875.1,286047014.8,P
1512003895.9,286047015.9,N
1512003915.7,286047015.9,N
1512003935.6,286047019.9,Y
1512003955.4,286047005.2,P
1512003975.2,286047008.3,N
1512003995.0,286047011.9,P
1512003996.0,286047011.9,Y
1512004015.8,286047005.7,P
1512004035.6,286047000.1,N
1512004055.4,286046999.5,N
1512004075.3,286046998.1,N
1512004095.1,286046999.0,N
1512004115.8,286046999.4,N
1512004135.7,286047002.2,N
1512004155.5,286046998.2,N
1512004175.3,286046997.2,N
1512004195.2,286046992.5,N
1512004215.9,286046994.5,N
1512004235.7,286046988.8,N
1512004255.6,286046990.5,N
1512004275.4,286046990.3,N
1512004295.2,286046986.0,N
1512004315.0,286046987.5,N
1512004316.0,286046987.5,N
1512004335.8,286046989.5,N
1512004355.6,286046989.2,N
1512004375.4,286046991.4,N
1512004395.3,286046989.4,N
1512004415.1,286046986.4,N
1512004435.8,286046985.6,N
1512004455.7,286046980.1,Y
1512004475.5,286046976.2,P
1512004495.3,286046973.2,P
1512004515.2,286046971.4,P
1512004535.9,286046969.8,Y
1512004555.7,286046988.6,P
1512004575.6,286046987.0,N
1512004595.4,286046986.2,P
1512004615.2,286046990.0,N
1512004635.1,286046990.0,N
1512004636.0,286046990.0,N
1512004655.8,286046986.1,Y
1512004675.6,286046998.2,P
1512004695.5,286046999.4,N
1512004715.3,286046995.5,N
1512004735.1,286046994.0,N
1512004755.9,286046990.1,N
1512004775.7,286046991.2,N
1512004795.5,286046990.9,N
1512004815.4,286046989.3,N
1512004835.2,286046989.6,N
1512004855.0,286046985.4,Y
1512004855.9,286046985.4,P
1512004875.8,286046993.5,N
1512004895.6,286046994.9,N
1512004915.4,286046995.1,N
1512004935.3,286046994.6,N
1512004955.1,286046991.0,N
1512004956.0,286046991.0,N
1512004975.8,286046988.0,Y
1512004995.7,286046993.5,P
1512005015.5,286046995.1,P
1512005035.3,286046996.9,N
1512005055.1,286047000.9,N
1512005075.9,286047005.1,N
1512005095.7,286047007.3,N
1512005115.5,286047005.0,N
1512005135.4,286047005.4,N
1512005155.2,286047005.2,N
1512005175.0,286047007.2,N
1512005175.9,286047007.2,N
1512005195.8,286047004.5,N
1512005215.6,286047004.4,N
1512005235.4,286047002.8,N
1512005255.3,286047001.5,N
1512005275.1,286047005.5,N
1512005276.0,286047005.5,N
1512005295.8,286047004.9,N
1512005315.7,286047002.2,N
1512005335.5,286047002.5,N
1512005355.3,286046999.4,N
1512005375.1,286046995.8,N
1512005395.9,286046994.1,N
1512005415.7,286046996.3,N
1512005435.5,286046992.0,N
1512005455.4,286046995.6,N
1512005475.2,286046999.2,N
1512005495.0,286047000.6,N
1512005495.9,286047000.6,N
1512005515.8,286047001.0,N
1512005535.6,286047001.3,N
1512005555.4,286047003.5,N
1512005575.3,286047000.4,N
1512005595.1,286046996.6,N
1512005596.0,286046996.6,N
1512005615.8,286047004.2,N
1512005635.7,286046998.2,N
1512005655.5,286046999.3,N
1512005675.3,286046997.0,N
1512005695.1,286046999.6,N
1512005715.9,286046995.3,N
1512005735.7,286046994.1,N
1512005755.5,286046997.8,N
1512005775.4,286046998.0,N
1512005795.2,286046995.1,N
1512005815.0,286046995.2,N
1512005815.9,286046995.2,N
1512005835.8,286046993.5,N
1512005855.6,286046993.5,N
1512005875.4,286046995.3,N
1512005895.3,286046995.0,N
1512005915.1,286046995.5,N
1512005916.0,286046995.5,N
1512005935.8,286046996.3,N
1512005955.7,286046995.7,N
1512005975.5,286046995.4,N
1512005995.3,286046997.7,N
1512006015.2,286046994.7,N
1512006035.9,286046991.4,Y
1512006055.7,286046995.5,P
1512006075.6,286046999.0,N
1512006095.4,286046997.8,N
1512006115.2,286046989.1,Y
1512006135.1,286046991.5,P
1512006136.0,286046991.5,N
1512006155.8,286046988.5,P
1512006175.6,286046990.4,N
1512006195.5,286046991.8,N
1512006215.3,286046994.3,N
1512006235.1,286046988.8,Y
1512006255.9,286046995.0,P
1512006275.7,286046998.8,N
1512006295.5,286047000.5,N
1512006315.4,286046998.3,N
1512006335.2,286046996.5,N
1512006355.0,286046993.3,N
1512006355.9,286046993.3,N
1512006375.8,286046992.2,N
1512006395.6,286046992.3,N
1512006415.4,286046992.2,N
1512006435.3,286046990.2,Y
1512006455.1,286046995.3,P
1512006456.0,286046995.3,P
1512006475.8,286046993.3,P
1512006495.7,286046995.5,Y
1512006515.5,286046999.8,P
1512006535.3,286047004.0,N
1512006555.2,286047003.0,N
1512006575.9,286047002.6,N
1512006595.7,286046996.7,N
1512006615.5,286046998.5,N
1512006635.4,286046998.1,N
1512006655.2,286046996.8,N
1512006675.0,286046993.9,N
1512006675.9,286046993.9,N
1512006695.8,286046994.0,N
1512006715.6,286046994.1,N
1512006735.4,286046994.1,N
1512006755.3,286046994.0,N
1512006775.1,286046991.1,N
1512006795.8,286046990.9,N
1512006815.7,286046991.3,N
1512006835.5,286046994.1,N
1512006855.3,286046990.2,N
1512006875.2,286046992.3,N
1512006895.9,286046993.1,N
1512006915.7,286046991.8,N
1512006935.5,286046990.3,N
1512006955.4,286046991.8,N
1512006975.2,286046995.6,N
1512006995.0,286046995.5,N
1512006995.9,286046995.5,N
1512007015.8,286046997.4,N
1512007035.6,286046998.4,N
1512007055.4,286046996.8,N
1512007075.3,286046993.9,N
1512007095.1,286046994.5,N
1512007096.0,286046994.5,N
1512007115.8,286046996.9,N
1512007135.7,286046998.1,N
1512007155.5,286047003.1,N
1512007175.3,286047006.5,N
1512007195.2,286047012.1,Y
